Weather History for KCKP - August, 2013

Change the Weather History Date:

Tuesday, August 6, 2013

  Actual Average Record
Temperature  
Mean Temperature 75 °F -  
Max Temperature 88 °F 82 °F 95 °F (1968)
Min Temperature 62 °F 60 °F 45 °F (1990)
Cooling Degree Days 10    
Growing Degree Days 25 (Base 50)    
Moisture  
Dew Point 66 °F    
Average Humidity 76    
Maximum Humidity 99    
Minimum Humidity 38    
Precipitation  
Precipitation 0.00 in - - ()
Sea Level Pressure  
Sea Level Pressure 29.84 in    
Wind  
Wind Speed 3 mph (SW)    
Max Wind Speed 15 mph    
Max Gust Speed 17 mph    
Visibility 8 miles    
Events Rain    
Averages and records for this station are not official NWS values.
T = Trace of Precipitation, MM = Missing Value Source: NWS Daily Summary

Daily Weather History Graph

Daily Weather History Graph

Search for Another Location

Airport or City:

Trip Planner

Search our weather history database for the weather conditions in past years. The results will help you decide how hot, cold, wet, or windy it might be!

Date:

Astronomy

Aug. 06, 2013 Rise Set
Actual Time 6:19 AM CDT 8:36 PM CDT
Civil Twilight 5:47 AM CDT 9:07 PM CDT
Nautical Twilight 5:08 AM CDT 9:46 PM CDT
Astronomical Twilight 4:25 AM CDT 10:29 PM CDT
Moon 6:12 AM CDT (8/6) 8:09 PM CDT (8/6)
Length of Visible Light 15h 19m
Length of Day
14h 16m
Waning Crescent, 0% of the Moon is Illuminated
Aug 6
Waning Crescent
Aug 6
New
Aug 14
First Quarter
Aug 20
Full
Aug 28
Last Quarter

Hourly Weather History & Observations

Time (CDT) Temp. Heat Index Dew Point Humidity Pressure Visibility Wind Dir Wind Speed Gust Speed Precip Events Conditions
12:15 AM 70.7 °F - 69.1 °F 95% 29.87 in 7.0 mi Calm Calm - N/A   Clear
12:35 AM 70.0 °F - 68.5 °F 95% 29.88 in 10.0 mi Calm Calm - N/A   Clear
12:55 AM 70.0 °F - 68.0 °F 93% 29.89 in 10.0 mi Calm Calm - N/A   Clear
1:15 AM 69.8 °F - 67.1 °F 91% 29.89 in 10.0 mi Calm Calm - N/A   Clear
1:35 AM 69.4 °F - 67.3 °F 93% 29.87 in 7.0 mi NNE 5.8 mph - N/A   Clear
1:55 AM 68.9 °F - 67.5 °F 95% 29.88 in 7.0 mi Calm Calm - N/A   Clear
2:15 AM 67.3 °F - 66.2 °F 96% 29.88 in 7.0 mi SE 3.5 mph - N/A   Clear
2:35 AM 67.1 °F - 65.7 °F 95% 29.87 in 7.0 mi Calm Calm - N/A   Clear
2:55 AM 65.3 °F - 64.2 °F 96% 29.87 in 7.0 mi Calm Calm - N/A   Clear
3:15 AM 65.3 °F - 64.4 °F 97% 29.86 in 7.0 mi Calm Calm - N/A   Clear
3:35 AM 63.9 °F - 63.0 °F 97% 29.86 in 5.0 mi Calm Calm - N/A   Clear
3:55 AM 63.9 °F - 63.1 °F 97% 29.87 in 2.0 mi Calm Calm - N/A   Clear
4:15 AM 64.4 °F - 63.9 °F 98% 29.87 in 3.0 mi Calm Calm - N/A   Clear
4:35 AM 63.0 °F - 62.4 °F 98% 29.87 in 3.0 mi Calm Calm - N/A   Clear
4:55 AM 63.7 °F - 63.3 °F 99% 29.86 in 2.5 mi South 3.5 mph - N/A   Clear
5:15 AM 62.8 °F - 62.2 °F 98% 29.85 in 2.5 mi Calm Calm - N/A   Clear
5:35 AM 62.2 °F - 61.9 °F 99% 29.84 in 2.5 mi Calm Calm - N/A   Clear
5:55 AM 63.0 °F - 62.6 °F 99% 29.85 in 4.0 mi Calm Calm - N/A   Mostly Cloudy
6:15 AM 63.5 °F - 63.1 °F 99% 29.85 in 0.8 mi Calm Calm - N/A   Overcast
6:35 AM 64.4 °F - 63.9 °F 98% 29.87 in 4.0 mi Calm Calm - N/A   Clear
6:55 AM 64.6 °F - 64.4 °F 99% 29.89 in 4.0 mi Calm Calm - N/A   Clear
7:15 AM 64.0 °F - 63.7 °F 99% 29.89 in 3.0 mi Calm Calm - N/A   Clear
7:35 AM 64.6 °F - 64.2 °F 99% 29.89 in 4.0 mi Calm Calm - N/A   Clear
7:55 AM 65.7 °F - 65.3 °F 99% 29.89 in 5.0 mi Calm Calm - N/A   Clear
8:15 AM 66.6 °F - 66.2 °F 99% 29.90 in 7.0 mi South 4.6 mph - N/A   Clear
8:35 AM 67.1 °F - 66.6 °F 98% 29.91 in 7.0 mi South 3.5 mph - N/A   Clear
8:55 AM 68.4 °F - 67.3 °F 96% 29.90 in 7.0 mi SSE 5.8 mph - N/A   Clear
9:15 AM 68.9 °F - 67.3 °F 95% 29.87 in 7.0 mi South 4.6 mph - N/A   Clear
9:35 AM 70.3 °F - 67.8 °F 92% 29.85 in 7.0 mi South 10.4 mph - N/A   Scattered Clouds
9:55 AM 72.1 °F - 68.2 °F 87% 29.81 in 10.0 mi South 9.2 mph - N/A   Clear
10:15 AM 73.8 °F - 69.1 °F 85% 29.76 in 10.0 mi SSE 15.0 mph - N/A   Clear
10:35 AM 76.1 °F - 69.1 °F 79% 29.78 in 10.0 mi South 9.2 mph 17.3 mph N/A   Clear
10:55 AM 75.6 °F - 69.6 °F 82% 29.78 in 10.0 mi South 10.4 mph - N/A   Clear
11:15 AM 77.9 °F - 69.6 °F 76% 29.79 in 10.0 mi SSW 11.5 mph - N/A   Clear
11:35 AM 81.5 °F 84.6 °F 68.7 °F 65% 29.80 in 10.0 mi SSW 11.5 mph - N/A   Clear
11:55 AM 84.0 °F 86.5 °F 66.6 °F 56% 29.82 in 10.0 mi West 3.5 mph - N/A   Clear
12:15 PM 85.5 °F 86.1 °F 62.6 °F 46% 29.82 in 10.0 mi SW 9.2 mph - N/A   Clear
12:35 PM 86.5 °F 87.6 °F 63.3 °F 46% 29.82 in 10.0 mi SW 10.4 mph - N/A   Clear
12:55 PM 87.8 °F 87.1 °F 59.0 °F 38% 29.83 in 10.0 mi West 9.2 mph - N/A   Clear
1:15 PM 85.8 °F 86.3 °F 62.2 °F 45% 29.83 in 10.0 mi SW 8.1 mph - N/A   Clear
1:35 PM 87.4 °F 87.7 °F 61.7 °F 42% 29.83 in 10.0 mi West 9.2 mph - N/A   Clear
1:55 PM 87.3 °F 88.0 °F 63.1 °F 44% 29.84 in 10.0 mi West 9.2 mph - N/A   Clear
2:15 PM 87.8 °F 88.5 °F 62.8 °F 43% 29.84 in 10.0 mi WSW 10.4 mph - N/A   Clear
2:35 PM 87.8 °F 89.1 °F 64.2 °F 45% 29.84 in 10.0 mi West 10.4 mph - N/A   Clear
2:55 PM 88.0 °F 89.0 °F 63.3 °F 44% 29.84 in 10.0 mi SW 10.4 mph - N/A   Clear
3:15 PM 87.1 °F 88.0 °F 63.5 °F 45% 29.84 in 10.0 mi West 6.9 mph 16.1 mph N/A   Clear
3:35 PM 87.8 °F 90.4 °F 66.4 °F 49% 29.83 in 10.0 mi SW 8.1 mph - N/A   Clear
3:55 PM 88.0 °F 90.3 °F 66.0 °F 48% 29.84 in 10.0 mi WSW 10.4 mph - N/A   Clear
4:15 PM 88.7 °F 91.5 °F 66.9 °F 48% 29.84 in 10.0 mi West 9.2 mph - N/A   Clear
4:35 PM 88.3 °F 89.2 °F 63.3 °F 43% 29.83 in 10.0 mi WSW 9.2 mph - N/A   Clear
4:55 PM 88.7 °F 89.4 °F 63.0 °F 42% 29.83 in 10.0 mi WNW 8.1 mph - N/A   Clear
5:15 PM 88.0 °F 88.7 °F 62.8 °F 43% 29.83 in 10.0 mi West 6.9 mph - N/A   Clear
5:35 PM 88.0 °F 89.3 °F 64.4 °F 45% 29.83 in 10.0 mi West 6.9 mph - N/A   Clear
5:55 PM 87.8 °F 89.7 °F 65.1 °F 47% 29.82 in 10.0 mi West 3.5 mph - N/A   Clear
6:15 PM 87.1 °F 88.9 °F 64.9 °F 48% 29.82 in 10.0 mi WSW 5.8 mph - N/A   Clear
6:35 PM 87.3 °F 88.6 °F 64.4 °F 46% 29.82 in 10.0 mi West 5.8 mph - N/A   Clear
6:55 PM 86.2 °F 88.4 °F 65.8 °F 51% 29.82 in 10.0 mi SW 5.8 mph - N/A   Scattered Clouds
7:15 PM 83.3 °F 86.6 °F 68.5 °F 61% 29.81 in 10.0 mi SSW 4.6 mph - N/A   Scattered Clouds
7:35 PM 81.7 °F 85.4 °F 70.3 °F 68% 29.81 in 10.0 mi SSW 3.5 mph - N/A   Scattered Clouds
7:55 PM 80.8 °F 84.2 °F 70.3 °F 70% 29.81 in 10.0 mi Calm Calm - N/A   Mostly Cloudy
8:15 PM 81.0 °F 84.6 °F 70.5 °F 70% 29.81 in 10.0 mi Calm Calm - N/A   Scattered Clouds
8:35 PM 79.9 °F - 71.2 °F 75% 29.81 in 10.0 mi Calm Calm - N/A   Scattered Clouds
8:55 PM 78.3 °F - 71.8 °F 80% 29.82 in 10.0 mi Calm Calm - N/A Rain Light Rain
9:15 PM 78.3 °F - 72.5 °F 82% 29.82 in 10.0 mi Calm Calm - N/A   Mostly Cloudy
9:35 PM 77.2 °F - 72.9 °F 86% 29.83 in 10.0 mi Calm Calm - N/A   Mostly Cloudy
9:55 PM 76.6 °F - 72.7 °F 87% 29.83 in 10.0 mi Calm Calm - N/A   Mostly Cloudy
10:15 PM 75.6 °F - 72.0 °F 89% 29.84 in 10.0 mi Calm Calm - N/A   Scattered Clouds
10:35 PM 74.7 °F - 72.0 °F 91% 29.85 in 10.0 mi SSW 3.5 mph - N/A   Clear
10:55 PM 75.0 °F - 71.6 °F 89% 29.85 in 10.0 mi Calm Calm - N/A   Clear
11:15 PM 73.9 °F - 71.6 °F 92% 29.85 in 10.0 mi Calm Calm - N/A   Clear
11:35 PM 73.6 °F - 71.1 °F 92% 29.85 in 10.0 mi Calm Calm - N/A   Clear
11:55 PM 72.1 °F - 69.3 °F 91% 29.85 in 10.0 mi Calm Calm - N/A   Clear